Temperature
9 9 9 9 9 9 9 9 9 9 9 9 9 9 9 9 9 9 9 9 9 9 9 9 9 9 9 9 9 9 9 9 9 9 10 10 10 10 10 10 10 10 10
8 8 8 8 8 8 8 8 8 8 8 8 8 8 8 9 9 9 8 8 8 8 8 8 8 8 8 8 8 9 9 9 9 9 9 9 9 9 9 9 9 9 9
7 7 7 7 7 7 7 7 8 8 8 8 8 8 8 8 8 8 8 8 8 8 8 8 8 8 8 8 8 8 8 8 8 8 8 9 9 9 9 9 9 9 9
7 7 7 7 6 7 7 7 7 7 7 7 7 7 7 7 7 7 7 7 7 7 8 8 7 7 7 7 7 7 8 8 8 8 8 8 8 8 8 8 8 8 8
6 6 6 6 6 6 6 6 6 6 6 7 7 6 6 7 7 7 7 7 7 7 7 7 7 7 7 7 7 7 7 7 7 7 7 7 7 8 8 8 8 8 8
6 6 6 5 5 5 5 5 5 5 5 6 6 6 6 6 6 6 6 6 6 6 6 6 6 7 6 6 6 6 6 6 7 7 7 7 7 7 7 7 7 7 7
5 5 5 5 5 5 5 5 5 5 5 5 5 5 5 5 5 5 5 5 5 5 5 6 6 6 6 6 6 6 6 6 6 6 6 6 6 6 6 7 7 7 7
5 5 5 4 4 4 4 4 5 4 4 4 4 4 4 4 4 4 4 5 5 5 5 5 5 5 5 6 6 6 6 6 6 6 6 6 6 6 6 6 6 6 6
4 4 4 4 4 4 4 4 4 4 4 4 4 4 4 3 3 3 4 4 4 4 4 4 4 4 5 5 5 5 5 5 5 5 5 5 5 5 5 5 5 5 5
4 4 4 4 3 3 3 3 3 3 4 4 3 3 4 4 3 3 3 3 3 3 4 4 4 4 4 4 4 4 5 5 4 4 4 4 4 4 4 4 5 5 5
3 3 3 3 3 3 3 3 3 3 3 3 3 3 3 3 3 3 2 2 3 3 3 3 3 3 3 3 3 4 4 4 4 4 4 4 4 4 4 4 4 4 4
3 3 3 3 3 3 2 2 2 2 2 2 2 2 2 2 3 2 2 2 2 2 2 2 3 3 3 3 3 3 3 3 3 3 3 3 3 3 3 3 3 3 3
3 3 2 2 2 2 2 2 2 2 2 2 2 2 2 2 2 2 2 1 1 1 2 2 2 2 2 2 2 2 2 2 2 2 2 2 3 3 3 3 3 3 3
2 2 2 2 2 2 2 1 1 1 1 1 1 1 1 1 1 1 1 1 1 1 1 1 2 1 1 1 1 1 2 2 2 2 2 2 2 2 2 2 2 2 2
2 2 2 2 2 1 1 1 1 1 1 1 1 1 1 1 1 1 1 1 0 -0 0 0 1 1 1 1 1 1 1 1 1 1 1 1 1 1 1 1 1 2 2
1 1 1 1 1 1 1 0 0 0 0 0 0 0 0 0 0 0 0 0 -0 -1 -1 -1 -0 -0 -0 -0 0 0 0 0 0 1 1 1 0 1 1 1 1 1 1
1 1 1 0 0 0 0 0 -0 -0 -0 -0 -0 -0 -0 -0 -0 -0 -0 -0 -1 -1 -1 -1 -1 -1 -1 -1 -1 -0 -0 -0 -0 -0 0 -0 -0 -0 -0 0 0 0 0
0 0 -0 -0 -0 -0 -0 -0 -1 -1 -1 -1 -1 -1 -1 -1 -1 -1 -1 -1 -1 -1 -2 -2 -2 -2 -1 -1 -1 -1 -1 -1 -1 -1 -1 -1 -1 -1 -1 -1 -1 -1 -1
-0 -1 -1 -1 -1 -1 -1 -1 -1 -1 -1 -1 -1 -2 -2 -2 -1 -1 -1 -2 -2 -2 -2 -2 -2 -2 -2 -2 -2 -2 -2 -2 -2 -2 -2 -2 -2 -2 -2 -1 -1 -1 -1
-1 -1 -1 -1 -1 -1 -1 -1 -2 -2 -2 -2 -2 -2 -2 -2 -2 -2 -2 -2 -2 -3 -3 -3 -3 -3 -3 -3 -3 -3 -2 -2 -2 -2 -2 -2 -2 -2 -2 -2 -2 -2 -2
-2 -2 -2 -2 -2 -2 -2 -2 -2 -2 -3 -3 -3 -3 -3 -3 -3 -3 -3 -3 -3 -3 -4 -4 -4 -4 -4 -4 -4 -4 -3 -3 -3 -3 -3 -3 -3 -3 -3 -3 -2 -2 -3
-2 -2 -3 -3 -3 -3 -3 -3 -3 -3 -3 -3 -3 -3 -3 -3 -3 -4 -4 -4 -4 -4 -4 -4 -4 -4 -4 -4 -4 -4 -4 -4 -4 -4 -4 -4 -4 -4 -3 -3 -3 -3 -3
-3 -3 -3 -3 -3 -3 -4 -4 -4 -4 -4 -4 -4 -4 -4 -4 -4 -4 -4 -4 -4 -4 -5 -5 -5 -5 -5 -5 -5 -5 -5 -5 -5 -5 -5 -5 -4 -4 -4 -4 -4 -4 -4
-3 -4 -4 -4 -4 -4 -4 -4 -5 -5 -4 -5 -5 -4 -4 -4 -4 -5 -5 -5 -5 -5 -5 -5 -5 -5 -5 -5 -5 -6 -6 -6 -5 -5 -6 -6 -5 -5 -5 -4 -4 -4 -4
-4 -4 -5 -5 -5 -5 -5 -5 -5 -5 -5 -5 -5 -5 -5 -5 -5 -5 -6 -6 -5 -5 -6 -6 -6 -6 -6 -6 -6 -6 -6 -6 -6 -6 -6 -6 -6 -6 -5 -5 -5 -5 -5
-5 -5 -5 -5 -5 -5 -6 -6 -6 -6 -6 -6 -6 -6 -6 -6 -6 -6 -6 -6 -6 -6 -6 -6 -6 -6 -6 -6 -6 -6 -7 -7 -7 -7 -7 -7 -7 -7 -7 -6 -6 -5 -5
Wind_Speed
5 6 7 8 8 9 8 8 9 9 9 10 10 11 11 11 12 11 11 13 12 11 11 10 10 9 9 9 9 9 9 9 9 9 9 8 7 8 7 6 6 5 5
6 6 6 6 7 7 8 8 8 7 7 8 8 9 9 10 11 12 12 12 13 12 11 11 10 9 10 8 8 8 8 9 8 8 8 8 8 7 6 5 6 5 4
7 6 5 5 5 7 8 8 8 8 7 7 6 8 8 9 10 11 11 11 12 12 12 11 11 10 9 9 8 7 7 7 7 7 7 7 7 7 6 5 4 4 4
8 7 5 4 6 7 7 5 4 4 4 4 4 5 6 7 9 9 10 10 11 11 11 11 11 11 10 9 8 7 6 6 6 6 6 6 6 6 6 6 5 4 4
8 7 5 5 6 6 5 4 3 3 4 4 4 4 5 5 6 7 8 9 10 10 11 10 11 11 10 9 8 7 6 6 6 5 5 5 5 5 6 5 6 5 4
7 7 6 6 6 5 3 4 4 3 3 3 4 4 4 4 5 5 5 7 9 10 10 10 10 9 9 9 9 8 7 6 5 5 5 5 5 5 5 5 5 6 5
7 7 5 5 5 4 4 4 4 4 2 2 3 2 3 3 3 4 5 6 7 8 9 9 9 9 8 9 9 9 8 6 6 5 5 5 5 6 6 5 5 5 6
6 6 6 4 4 4 4 4 4 2 1 1 2 1 1 2 3 3 3 3 4 6 7 8 9 9 8 8 8 8 7 7 6 5 5 5 5 5 6 6 6 6 6
6 6 6 5 4 4 4 4 4 4 2 0 0 2 2 2 1 1 2 2 3 4 5 6 7 8 8 8 8 7 7 7 7 6 6 6 6 6 6 6 6 6 7
6 6 6 6 5 4 4 4 3 2 3 2 0 1 1 2 2 0 1 2 2 2 3 4 5 7 7 8 8 7 7 7 7 7 7 7 6 7 7 7 7 8 8
5 6 6 6 5 4 4 4 3 3 2 2 2 1 1 1 1 2 2 2 2 2 2 2 3 5 6 7 7 8 8 8 7 7 7 8 7 7 8 8 8 8 9
3 4 5 5 5 4 4 4 4 4 3 3 2 2 2 2 2 2 2 2 2 2 2 2 2 3 5 6 6 8 8 8 8 7 8 8 9 8 8 8 8 9 9
3 5 4 5 5 5 5 5 4 3 4 4 3 2 2 2 2 1 1 1 2 2 2 2 1 2 4 4 5 7 8 8 8 8 8 8 9 10 9 9 9 9 9
5 5 6 5 6 6 5 5 4 4 3 3 3 3 2 1 1 2 2 2 1 2 2 3 2 2 2 3 6 8 7 8 8 8 8 9 9 10 11 11 10 9 9
3 5 5 5 5 5 5 5 4 4 4 3 3 3 2 2 2 2 2 3 3 2 3 3 2 2 3 4 6 7 7 7 8 8 8 9 9 10 10 11 10 10 10
4 5 5 5 5 5 5 5 4 4 4 3 3 3 2 2 2 2 2 2 2 3 3 2 2 3 4 5 6 6 7 7 7 8 8 9 9 10 10 10 11 10 10
4 5 5 5 5 4 5 5 5 5 5 4 3 4 4 3 2 2 2 2 2 2 3 3 3 2 3 3 5 6 6 6 6 7 8 9 9 9 10 10 10 11 10
4 4 5 5 4 4 5 6 6 5 5 5 5 4 4 3 3 3 3 3 2 2 3 4 3 3 3 3 4 4 5 6 6 7 8 9 9 9 9 10 10 11 12
4 4 4 5 4 4 4 5 5 5 5 5 5 5 5 4 4 3 3 3 3 2 2 3 3 3 3 3 3 4 5 5 6 7 8 8 9 9 9 10 11 11 12
4 5 5 5 5 5 4 4 4 4 4 4 4 5 5 6 5 5 4 4 3 3 2 2 2 2 3 2 2 3 3 3 4 6 7 7 8 9 10 10 11 11 11
3 4 4 4 4 4 4 5 4 4 4 3 3 4 5 5 6 6 4 4 4 3 3 3 2 2 2 2 2 3 4 4 4 3 3 5 7 7 10 11 11 11 11
3 3 3 4 4 3 5 6 5 4 3 3 3 3 3 4 5 6 6 6 6 5 5 4 3 4 4 3 3 3 3 3 4 2 2 5 5 5 8 9 10 11 12
3 3 3 3 3 4 6 6 6 4 4 3 3 3 3 3 3 3 4 5 5 7 6 5 5 5 4 4 3 3 4 4 5 3 3 5 3 5 8 9 11 11 12
3 3 3 3 3 3 4 5 5 3 3 3 3 3 3 3 3 4 3 3 3 4 5 4 4 5 4 4 5 4 4 3 3 4 3 4 4 4 7 9 10 11 12
2 2 2 3 3 3 4 4 3 3 3 3 2 3 3 3 6 6 3 3 2 3 4 5 5 5 6 6 4 2 2 2 3 4 2 2 3 4 5 5 8 10 12
2 2 1 2 3 3 4 4 3 2 3 2 2 2 4 5 6 6 3 3 3 3 2 2 3 3 4 4 4 3 3 3 3 3 2 2 2 3 4 3 5 7 10
Wind_Direction
96 89 83 81 80 83 83 80 79 75 69 65 64 64 59 56 52 46 41 47 52 52 51 54 54 52 58 62 66 66 65 65 62 59 57 57 59 57 56 55 58 65 66
111 101 90 86 85 90 91 89 87 83 76 74 68 63 59 56 54 50 45 41 44 47 48 49 50 49 49 54 59 63 62 61 59 55 53 52 53 53 50 48 46 49 57
121 112 100 92 95 101 98 94 87 86 80 73 64 61 59 57 55 50 46 43 41 40 45 46 45 45 46 46 48 55 59 58 55 51 50 49 48 48 43 40 42 38 33
131 119 108 104 110 108 104 99 90 82 73 67 57 51 53 55 54 51 49 46 45 40 39 42 43 41 40 39 37 42 50 54 54 48 46 46 43 43 39 37 36 30 25
140 130 122 122 120 107 100 104 87 91 90 78 65 49 45 48 47 51 53 48 47 46 41 37 37 37 34 30 29 30 35 48 52 46 40 35 30 30 30 30 29 24 21
146 136 128 129 125 114 103 105 102 83 96 94 72 52 32 34 46 48 50 50 49 48 46 41 37 31 28 24 23 21 23 31 40 38 34 28 22 16 11 15 13 10 2
150 142 134 132 131 134 136 131 119 104 86 97 81 55 30 30 41 39 47 50 48 46 48 45 41 36 27 19 16 15 16 17 23 27 25 21 18 13 12 11 9 5 359
156 153 143 147 145 139 142 144 136 127 116 83 113 109 62 5 21 23 25 36 38 46 47 40 41 35 31 25 13 10 8 11 6 8 13 10 6 2 2 3 0 1 358
162 157 154 148 151 154 162 165 160 152 165 174 96 152 157 199 302 346 5 22 28 34 36 37 35 30 27 24 15 8 5 360 359 3 1 359 356 352 347 345 344 342 344
164 159 154 151 155 160 165 175 168 166 162 175 138 23 116 153 160 229 324 360 5 9 15 25 25 22 22 22 16 9 2 360 357 357 358 352 346 342 341 342 343 343 341
163 161 159 157 161 165 170 171 169 169 175 179 179 173 91 66 116 181 243 300 331 336 347 7 22 20 19 19 18 14 7 2 357 355 353 351 344 340 339 337 336 335 334
173 169 165 166 169 172 178 179 177 176 182 171 171 183 185 175 184 181 209 266 289 304 322 333 4 10 14 17 14 12 9 4 358 354 351 353 351 343 337 334 335 333 330
193 191 184 181 181 182 181 174 173 180 186 178 183 193 196 193 181 182 182 231 282 298 299 305 299 350 357 10 11 9 10 3 358 352 349 348 351 350 340 335 330 327 327
198 195 190 187 184 182 181 175 177 184 182 184 188 186 188 201 179 185 181 176 265 296 290 281 295 303 341 6 3 360 357 353 349 347 344 343 346 341 342 335 331 328 326
196 186 187 187 185 183 181 178 183 187 182 190 192 189 193 214 194 183 174 178 182 239 268 268 276 293 324 339 336 348 346 344 343 342 337 338 336 337 333 335 329 327 324
191 183 187 187 185 182 177 174 174 177 179 191 193 184 197 218 193 185 179 180 189 204 250 270 269 295 311 311 318 330 333 333 334 331 331 330 330 330 330 326 332 325 323
183 184 185 182 179 177 172 170 175 179 183 189 194 191 207 208 187 189 183 182 191 191 232 276 282 298 297 299 312 318 323 322 321 323 324 324 325 324 325 323 323 330 322
184 184 178 175 175 172 167 171 178 183 186 192 199 195 211 202 189 193 192 196 203 203 212 250 275 291 290 287 292 301 313 315 315 316 317 319 319 320 321 323 323 323 322
173 175 174 178 180 176 172 176 180 188 192 197 199 200 211 193 195 203 203 205 210 215 209 224 261 284 290 290 298 301 304 302 305 308 311 315 317 318 319 317 320 318 321
170 176 184 184 184 177 175 174 174 180 186 198 204 208 214 202 201 203 206 204 200 203 203 213 248 273 282 284 281 290 298 295 296 305 305 311 314 315 315 313 314 316 317
175 175 180 179 177 174 178 174 179 181 185 195 210 218 216 208 208 206 208 200 197 203 208 218 240 263 270 281 278 280 279 297 293 285 296 299 306 308 310 309 308 310 314
169 171 173 177 183 191 195 192 178 175 180 188 206 214 210 207 216 226 230 223 214 206 207 214 233 243 256 261 270 275 276 292 295 279 293 296 294 292 299 300 299 305 311
169 175 175 182 193 201 202 201 197 176 176 192 204 204 212 213 218 210 234 243 244 242 237 226 227 235 241 238 234 257 260 260 271 276 289 287 285 286 293 295 300 305 310
169 174 181 186 189 208 209 210 205 172 171 195 205 202 203 210 215 209 211 224 241 249 249 243 228 237 239 233 227 237 250 266 277 276 270 277 285 285 293 294 297 304 310
153 161 176 177 184 210 217 217 205 167 177 197 207 204 203 209 220 218 202 206 236 257 264 260 261 262 265 266 257 237 245 262 276 280 260 253 280 300 293 281 294 303 309
152 151 163 174 191 212 228 223 207 173 180 192 206 215 224 222 224 227 207 197 220 245 246 260 275 285 279 269 263 230 221 246 270 274 249 244 271 309 302 283 294 303 307
Height
1531 1532 1533 1534 1534 1535 1537 1538 1539 1540 1541 1542 1542 1543 1544 1544 1545 1546 1547 1548 1548 1549 1550 1551 1551 1552 1552 1552 1553 1553 1554 1554 1554 1555 1555 1555 1556 1556 1557 1557 1558 1558 1559
1529 1530 1531 1532 1533 1534 1535 1536 1537 1538 1539 1540 1541 1542 1543 1543 1544 1545 1545 1546 1547 1548 1548 1549 1550 1550 1551 1551 1552 1552 1552 1553 1553 1553 1554 1554 1555 1555 1556 1556 1557 1557 1558
1528 1529 1530 1531 1532 1533 1534 1535 1536 1537 1538 1539 1540 1541 1541 1542 1543 1543 1544 1545 1545 1546 1547 1547 1548 1549 1549 1550 1551 1551 1551 1551 1552 1552 1552 1553 1553 1554 1554 1555 1555 1556 1556
1526 1527 1528 1529 1530 1531 1532 1533 1534 1535 1536 1537 1538 1539 1540 1540 1541 1542 1543 1543 1544 1544 1545 1545 1546 1547 1547 1548 1549 1549 1549 1550 1550 1551 1551 1551 1552 1552 1552 1553 1553 1554 1554
1524 1525 1526 1527 1528 1530 1531 1532 1533 1534 1534 1535 1536 1537 1538 1539 1540 1540 1541 1542 1542 1543 1543 1544 1544 1545 1545 1546 1547 1547 1547 1548 1548 1548 1549 1549 1550 1550 1551 1551 1551 1551 1552
1521 1522 1524 1525 1526 1527 1529 1530 1531 1532 1533 1534 1534 1535 1536 1537 1538 1538 1539 1540 1540 1541 1541 1542 1542 1542 1543 1543 1544 1545 1545 1546 1546 1546 1547 1547 1548 1548 1548 1549 1549 1549 1549
1519 1520 1521 1522 1524 1525 1526 1528 1529 1530 1531 1532 1533 1533 1534 1535 1536 1536 1537 1538 1538 1539 1539 1540 1540 1540 1541 1541 1542 1542 1542 1543 1544 1544 1544 1545 1545 1545 1546 1546 1546 1546 1546
1516 1517 1518 1520 1521 1523 1524 1525 1527 1527 1528 1530 1531 1531 1532 1534 1533 1534 1535 1535 1536 1536 1537 1537 1537 1538 1538 1538 1539 1540 1540 1540 1541 1541 1541 1542 1542 1542 1543 1543 1543 1543 1543
1512 1514 1515 1517 1518 1520 1521 1523 1524 1525 1526 1528 1529 1531 1530 1530 1531 1532 1532 1533 1533 1534 1534 1535 1535 1535 1535 1536 1536 1537 1537 1537 1538 1538 1539 1539 1539 1539 1540 1540 1540 1540 1540
1509 1511 1512 1514 1515 1517 1518 1520 1522 1523 1524 1525 1526 1527 1529 1528 1529 1528 1530 1530 1531 1531 1532 1532 1532 1532 1533 1533 1533 1534 1534 1534 1534 1535 1535 1536 1536 1536 1536 1536 1536 1536 1536
1505 1507 1509 1510 1512 1514 1515 1517 1518 1520 1521 1523 1523 1524 1525 1526 1527 1527 1526 1527 1528 1528 1529 1529 1530 1530 1530 1530 1530 1531 1531 1531 1531 1531 1532 1532 1532 1532 1532 1532 1532 1532 1532
1501 1503 1505 1506 1508 1510 1511 1513 1515 1516 1518 1520 1521 1522 1522 1523 1524 1525 1524 1524 1524 1525 1526 1526 1527 1527 1527 1527 1527 1528 1528 1528 1528 1528 1528 1528 1529 1528 1528 1528 1528 1528 1528
1496 1498 1500 1502 1504 1506 1507 1509 1511 1512 1514 1516 1517 1518 1519 1520 1521 1522 1522 1522 1522 1522 1522 1523 1524 1524 1524 1524 1524 1524 1524 1524 1524 1525 1524 1525 1524 1524 1524 1524 1524 1523 1523
1493 1495 1496 1498 1500 1501 1503 1504 1506 1508 1510 1511 1513 1514 1515 1516 1518 1519 1519 1520 1519 1519 1519 1520 1520 1521 1521 1521 1520 1520 1521 1521 1521 1521 1521 1521 1520 1520 1519 1519 1519 1519 1518
1489 1490 1492 1494 1495 1496 1498 1499 1501 1503 1505 1507 1508 1510 1511 1512 1514 1515 1516 1517 1518 1516 1516 1516 1516 1517 1517 1517 1517 1517 1517 1516 1516 1516 1516 1516 1516 1516 1515 1515 1514 1514 1513
1484 1486 1487 1489 1490 1492 1493 1495 1496 1498 1501 1502 1504 1505 1507 1508 1509 1511 1512 1513 1514 1514 1513 1512 1513 1513 1513 1513 1513 1513 1512 1512 1512 1512 1512 1512 1511 1511 1510 1510 1509 1509 1508
1480 1481 1483 1484 1486 1487 1488 1490 1492 1494 1496 1498 1499 1501 1503 1504 1505 1506 1507 1508 1509 1510 1509 1509 1510 1509 1509 1509 1509 1508 1508 1508 1508 1508 1507 1507 1507 1506 1506 1505 1504 1503 1503
1476 1477 1479 1480 1481 1482 1484 1485 1487 1490 1492 1493 1495 1497 1498 1499 1500 1502 1503 1503 1504 1505 1506 1505 1505 1505 1505 1505 1504 1504 1504 1503 1503 1503 1503 1502 1502 1501 1501 1500 1499 1498 1497
1472 1473 1475 1476 1477 1478 1480 1481 1484 1486 1487 1489 1491 1492 1493 1495 1496 1497 1498 1499 1500 1501 1501 1501 1500 1500 1500 1500 1500 1499 1499 1499 1499 1498 1498 1497 1497 1496 1495 1495 1494 1493 1492
1468 1470 1471 1472 1474 1475 1476 1477 1479 1481 1483 1484 1486 1488 1489 1490 1491 1493 1494 1495 1496 1496 1497 1496 1496 1496 1496 1496 1495 1494 1494 1494 1494 1494 1493 1492 1492 1491 1490 1489 1488 1488 1486
1465 1466 1467 1468 1469 1471 1472 1473 1475 1476 1478 1479 1481 1483 1484 1485 1487 1488 1489 1490 1491 1492 1492 1492 1492 1492 1491 1491 1491 1490 1490 1489 1489 1489 1488 1487 1487 1486 1485 1484 1483 1482 1481
1461 1462 1463 1464 1465 1467 1468 1469 1471 1472 1474 1475 1476 1478 1480 1481 1482 1484 1485 1486 1487 1487 1487 1487 1487 1487 1487 1487 1487 1486 1486 1484 1483 1484 1483 1482 1482 1480 1479 1479 1477 1476 1475
1457 1458 1459 1461 1462 1463 1465 1466 1467 1468 1470 1471 1473 1474 1475 1476 1478 1479 1480 1481 1482 1482 1483 1483 1483 1482 1482 1482 1482 1482 1481 1481 1480 1479 1478 1476 1477 1475 1474 1473 1472 1471 1470
1453 1454 1456 1457 1458 1460 1461 1462 1464 1464 1466 1467 1469 1469 1471 1472 1473 1474 1475 1476 1476 1477 1477 1478 1478 1478 1478 1478 1478 1478 1477 1476 1475 1475 1475 1472 1470 1470 1469 1468 1467 1465 1464
1449 1451 1452 1453 1454 1456 1457 1459 1460 1461 1462 1463 1465 1466 1467 1468 1469 1470 1471 1471 1471 1472 1473 1473 1473 1473 1473 1473 1473 1473 1472 1471 1469 1469 1470 1468 1465 1464 1462 1462 1461 1460 1458
1446 1447 1449 1450 1451 1452 1454 1455 1457 1457 1458 1459 1461 1462 1463 1464 1465 1466 1466 1466 1466 1467 1468 1468 1468 1468 1468 1468 1468 1468 1467 1467 1465 1465 1464 1464 1462 1460 1457 1455 1455 1454 1452